Regional Weather Roundup
Issued by NWS

Home | Current Version | Previous Version | Graphics & Text | Print | Product List | Glossary On
Versions: 1 2 3 4 5 6 7 8 9 10 11 12 13 14 15 16 17 18 19 20 21 22 23 24 25 26 27 28 29 30 31 32 33 34 35 36 37 38 39 40 41 42 43 44 45 46 47 48 49 50
000
ASUS43 KOAX 301110
RWRNE

WEATHER ROUNDUP FOR NEBRASKA
NATIONAL WEATHER SERVICE OMAHA NE
600 AM CDT SUN AUG 30 2015

NOTES: SATELLITE DATA IS BEING USED TO AUGMENT CLOUD COVER ABOVE
       12000 FEET.
       "FAIR" INDICATES FEW OR NO CLOUDS BELOW 12,000 FEET WITH NO
       SIGNIFICANT WEATHER AND/OR OBSTRUCTIONS TO VISIBILITY.

  * THESE STATIONS DO NOT REPORT WEATHER SUCH AS RAIN...SNOW OR FOG.

NEZ001>004-019>022-054>056-301200-
NEBRASKA PANHANDLE

CITY           SKY/WX    TMP DP  RH WIND       PRES   REMARKS
SCOTTSBLUFF    PTCLDY    68  42  38 SE6       29.99S
ALLIANCE       PTCLDY    60  44  55 S8        29.99F
CHADRON        PTCLDY    69  42  37 S9        29.90F
KIMBALL        PTCLDY    58  42  54 SW8       30.05R
SIDNEY         PTCLDY    59  44  57 S9        30.04F
$$

NEZ057>060-069>072-079>082-301200-
SOUTHWEST NEBRASKA

CITY           SKY/WX    TMP DP  RH WIND       PRES   REMARKS
NORTH PLATTE   CLEAR     62  52  69 S8        30.03S
IMPERIAL       PTCLDY    61  46  57 SW8       30.04S
LEXINGTON      CLEAR     61  58  92 SE5       30.04S
MCCOOK         CLEAR     56  51  84 SE5       30.04S
OGALLALA       PTCLDY    55  48  79 S3        30.03F
$$

NEZ005>010-023>029-035>040-094-301200-
NORTH CENTRAL NEBRASKA

CITY           SKY/WX    TMP DP  RH WIND       PRES   REMARKS
VALENTINE      CLEAR     64  55  72 SW12      29.95S
AINSWORTH      CLEAR     64  56  74 S12       29.97S
BROKEN BOW     CLEAR     60  56  86 S6        30.02S
O`NEILL        PTCLDY    61  60  97 S6        29.98S
ORD            FOG       54  53  97 E5        30.00S VSB 3/4
THEDFORD       CLEAR     63  54  73 S8        30.01F
$$

NEZ041-046>049-061>064-073>077-083>087-301200-
SOUTH CENTRAL NEBRASKA

CITY           SKY/WX    TMP DP  RH WIND       PRES   REMARKS
GRAND ISLAND   CLOUDY    62  62 100 SW7       30.04S FOG
AURORA         CLOUDY    63  63 100 SW6       30.04R FOG
HASTINGS       FOG       61  60  97 SW6       30.04S VSB 1/2
HEBRON         FOG       57  56  94 CALM      30.05R VSB 1/4
HOLDREGE       CLEAR     58  57  95 S3        30.05S
KEARNEY *      CLOUDY    59  55  88 S6        30.04S VSB 1/2
YORK           FOG       61  61 100 SW7       30.04S VSB 3/4
$$

NEZ011>018-030>034-042>045-301200-
NORTHEAST NEBRASKA

CITY           SKY/WX    TMP DP  RH WIND       PRES   REMARKS
NORFOLK        FOG       63  62  97 S8        30.01S VSB 1
ALBION         CLOUDY    63  61  94 S8        30.02S FOG
BLAIR          FOG       61  60  95 S9        30.03S VSB 1/2
COLUMBUS *     CLOUDY   N/A N/A N/A SW5       30.03S
FREMONT        CLOUDY    62  60  94 SW5       30.03S FOG
TEKAMAH        CLOUDY    63  62  97 S6        30.02S
WAYNE          FOG       62  61  98 SW10      30.02S VSB 3/4
$$

NEZ050>053-065>068-078-088>093-301200-
SOUTHEAST NEBRASKA

CITY           SKY/WX    TMP DP  RH WIND       PRES   REMARKS
LINCOLN        CLOUDY    63  61  93 SW7       30.04S
OMAHA EPPLEY   CLOUDY    63  62  97 S6        30.03S FOG
BEATRICE       FOG       60  60 100 CALM      30.04R VSB 1/4
FALLS CITY     PTCLDY    56  56 100 CALM      30.02S
NEBRASKA CITY  FOG       57  56  99 CALM      30.03F VSB 1/4
PLATTSMOUTH    FOG       58  57  96 W3        30.04S VSB 1/4
$$

NEZ044-045-051>053-067-301200-
OMAHA AREA

CITY           SKY/WX    TMP DP  RH WIND       PRES   REMARKS
OMAHA EPPLEY   CLOUDY    63  62  97 S6        30.03S FOG
BLAIR          FOG       61  60  95 S9        30.03S VSB 1/2
FREMONT        CLOUDY    62  60  94 SW5       30.03S FOG
MILLARD        CLOUDY    63  61  93 CALM      30.03S FOG
OFFUTT AFB     FOG       61  59  94 SW6       30.02F VSB 3/4
PLATTSMOUTH    FOG       58  57  96 W3        30.04S VSB 1/4
WAHOO          CLOUDY    62  61  96 SW5       30.03S FOG
$$




USA.gov is the U.S. government's official web portal to all federal, state and local government web resources and services.